Year,Month,Day,Hour,Minute,Value (Times are PST for temperature in C)
2013,06,29,00,00,14.30
2013,06,29,00,01,14.30
2013,06,29,00,02,14.40
2013,06,29,00,03,14.40
2013,06,29,00,04,14.40
2013,06,29,00,05,14.40
2013,06,29,00,06,14.40
2013,06,29,00,07,14.50
2013,06,29,00,08,14.50
2013,06,29,00,09,14.60
2013,06,29,00,10,14.70
2013,06,29,00,11,14.70
2013,06,29,00,12,14.80
2013,06,29,00,13,14.90
2013,06,29,00,14,14.80
2013,06,29,00,15,14.80
2013,06,29,00,16,14.70
2013,06,29,00,17,14.70
2013,06,29,00,18,14.60
2013,06,29,00,19,14.60
2013,06,29,00,20,14.60
2013,06,29,00,21,14.60
2013,06,29,00,22,14.60
2013,06,29,00,23,14.60
2013,06,29,00,24,14.50
2013,06,29,00,25,14.50
2013,06,29,00,26,14.40
2013,06,29,00,27,14.30
2013,06,29,00,28,14.20
2013,06,29,00,29,14.10
2013,06,29,00,30,14.00
2013,06,29,00,31,13.90
2013,06,29,00,32,13.80
2013,06,29,00,33,13.80
2013,06,29,00,34,13.70
2013,06,29,00,35,13.60
2013,06,29,00,36,13.60
2013,06,29,00,37,13.50
2013,06,29,00,38,13.50
2013,06,29,00,39,13.50
2013,06,29,00,40,13.40
2013,06,29,00,41,13.40
2013,06,29,00,42,13.40
2013,06,29,00,43,13.40
2013,06,29,00,44,13.30
2013,06,29,00,45,13.30
2013,06,29,00,46,13.20
2013,06,29,00,47,13.20
2013,06,29,00,48,13.20
2013,06,29,00,49,13.10
2013,06,29,00,50,13.10
2013,06,29,00,51,13.10
2013,06,29,00,52,13.00
2013,06,29,00,53,12.90
2013,06,29,00,54,12.80
2013,06,29,00,55,12.70
2013,06,29,00,56,12.70
2013,06,29,00,57,12.70
2013,06,29,00,58,12.60
2013,06,29,00,59,12.60
2013,06,29,01,00,12.60
2013,06,29,01,01,12.50
2013,06,29,01,02,12.50
2013,06,29,01,03,12.40
2013,06,29,01,04,12.40
2013,06,29,01,05,12.40
2013,06,29,01,06,12.40
2013,06,29,01,07,12.40
2013,06,29,01,08,12.40
2013,06,29,01,09,12.40
2013,06,29,01,10,12.40
2013,06,29,01,11,12.40
2013,06,29,01,12,12.30
2013,06,29,01,13,12.30
2013,06,29,01,14,12.30
2013,06,29,01,15,12.30
2013,06,29,01,16,12.40
2013,06,29,01,17,12.50
2013,06,29,01,18,12.80
2013,06,29,01,19,13.10
2013,06,29,01,20,13.30
2013,06,29,01,21,13.50
2013,06,29,01,22,13.60
2013,06,29,01,23,13.70
2013,06,29,01,24,13.70
2013,06,29,01,25,13.70
2013,06,29,01,26,13.70
2013,06,29,01,27,13.70
2013,06,29,01,28,13.70
2013,06,29,01,29,13.80
2013,06,29,01,30,13.80
2013,06,29,01,31,13.80
2013,06,29,01,32,13.80
2013,06,29,01,33,13.80
2013,06,29,01,34,13.90
2013,06,29,01,35,14.00
2013,06,29,01,36,14.00
2013,06,29,01,37,14.10
2013,06,29,01,38,14.10
2013,06,29,01,39,14.10
2013,06,29,01,40,14.10
2013,06,29,01,41,14.10
2013,06,29,01,42,14.10
2013,06,29,01,43,14.10
2013,06,29,01,44,14.10
2013,06,29,01,45,14.10
2013,06,29,01,46,14.10
2013,06,29,01,47,14.10
2013,06,29,01,48,14.20
2013,06,29,01,49,14.30
2013,06,29,01,50,14.30
2013,06,29,01,51,14.40
2013,06,29,01,52,14.50
2013,06,29,01,53,14.60
2013,06,29,01,54,14.60
2013,06,29,01,55,14.70
2013,06,29,01,56,14.80
2013,06,29,01,57,14.80
2013,06,29,01,58,14.90
2013,06,29,01,59,15.00
2013,06,29,02,00,15.00
2013,06,29,02,01,15.00
2013,06,29,02,02,14.90
2013,06,29,02,03,14.60
2013,06,29,02,04,14.40
2013,06,29,02,05,14.30
2013,06,29,02,06,14.20
2013,06,29,02,07,14.10
2013,06,29,02,08,14.10
2013,06,29,02,09,14.00
2013,06,29,02,10,14.00
2013,06,29,02,11,13.90
2013,06,29,02,12,13.90
2013,06,29,02,13,13.90
2013,06,29,02,14,13.90
2013,06,29,02,15,14.00
2013,06,29,02,16,14.10
2013,06,29,02,17,14.10
2013,06,29,02,18,14.20
2013,06,29,02,19,14.20
2013,06,29,02,20,14.30
2013,06,29,02,21,14.30
2013,06,29,02,22,14.20
2013,06,29,02,23,14.20
2013,06,29,02,24,14.10
2013,06,29,02,25,14.10
2013,06,29,02,26,14.00
2013,06,29,02,27,14.00
2013,06,29,02,28,13.90
2013,06,29,02,29,13.80
2013,06,29,02,30,13.80
2013,06,29,02,31,13.70
2013,06,29,02,32,13.70
2013,06,29,02,33,13.70
2013,06,29,02,34,13.70
2013,06,29,02,35,13.70
2013,06,29,02,36,13.70
2013,06,29,02,37,13.70
2013,06,29,02,38,13.70
2013,06,29,02,39,13.70
2013,06,29,02,40,13.70
2013,06,29,02,41,13.70
2013,06,29,02,42,13.70
2013,06,29,02,43,13.80
2013,06,29,02,44,13.80
2013,06,29,02,45,13.80
2013,06,29,02,46,13.80
2013,06,29,02,47,13.80
2013,06,29,02,48,13.80
2013,06,29,02,49,13.80
2013,06,29,02,50,13.80
2013,06,29,02,51,13.70
2013,06,29,02,52,13.40
2013,06,29,02,53,13.40
2013,06,29,02,54,13.30
2013,06,29,02,55,13.30
2013,06,29,02,56,13.30
2013,06,29,02,57,13.30
2013,06,29,02,58,13.30
2013,06,29,02,59,13.30
2013,06,29,03,00,13.40
2013,06,29,03,01,13.40
2013,06,29,03,02,13.50
2013,06,29,03,03,13.50
2013,06,29,03,04,13.60
2013,06,29,03,05,13.60
2013,06,29,03,06,13.70
2013,06,29,03,07,13.70
2013,06,29,03,08,13.70
2013,06,29,03,09,13.80
2013,06,29,03,10,13.80
2013,06,29,03,11,13.80
2013,06,29,03,12,13.80
2013,06,29,03,13,13.80
2013,06,29,03,14,13.80
2013,06,29,03,15,13.80
2013,06,29,03,16,13.80
2013,06,29,03,17,13.80
2013,06,29,03,18,13.80
2013,06,29,03,19,13.90
2013,06,29,03,20,13.90
2013,06,29,03,21,13.80
2013,06,29,03,22,13.80
2013,06,29,03,23,13.80
2013,06,29,03,24,13.80
2013,06,29,03,25,13.90
2013,06,29,03,26,13.90
2013,06,29,03,27,13.90
2013,06,29,03,28,13.90
2013,06,29,03,29,13.90
2013,06,29,03,30,13.90
2013,06,29,03,31,13.90
2013,06,29,03,32,14.00
2013,06,29,03,33,13.90
2013,06,29,03,34,13.90
2013,06,29,03,35,13.90
2013,06,29,03,36,13.90
2013,06,29,03,37,14.00
2013,06,29,03,38,14.00
2013,06,29,03,39,14.00
2013,06,29,03,40,14.00
2013,06,29,03,41,14.00
2013,06,29,03,42,14.00
2013,06,29,03,43,14.00
2013,06,29,03,44,14.00
2013,06,29,03,45,13.90
2013,06,29,03,46,13.90
2013,06,29,03,47,13.80
2013,06,29,03,48,13.80
2013,06,29,03,49,13.80
2013,06,29,03,50,13.70
2013,06,29,03,51,13.70
2013,06,29,03,52,13.60
2013,06,29,03,53,13.60
2013,06,29,03,54,13.60
2013,06,29,03,55,13.50
2013,06,29,03,56,13.40
2013,06,29,03,57,13.30
2013,06,29,03,58,13.20
2013,06,29,03,59,13.00
2013,06,29,04,00,12.80
2013,06,29,04,01,12.80
2013,06,29,04,02,12.70
2013,06,29,04,03,12.70
2013,06,29,04,04,12.60
2013,06,29,04,05,12.60
2013,06,29,04,06,12.60
2013,06,29,04,07,12.70
2013,06,29,04,08,12.70
2013,06,29,04,09,12.70
2013,06,29,04,10,12.70
2013,06,29,04,11,12.70
2013,06,29,04,12,12.70
2013,06,29,04,13,12.70
2013,06,29,04,14,12.70
2013,06,29,04,15,12.70
2013,06,29,04,16,12.70
2013,06,29,04,17,12.80
2013,06,29,04,18,12.80
2013,06,29,04,19,12.80
2013,06,29,04,20,12.80
2013,06,29,04,21,12.90
2013,06,29,04,22,12.90
2013,06,29,04,23,12.90
2013,06,29,04,24,13.00
2013,06,29,04,25,13.00
2013,06,29,04,26,13.00
2013,06,29,04,27,13.10
2013,06,29,04,28,13.10
2013,06,29,04,29,13.20
2013,06,29,04,30,13.20
2013,06,29,04,31,13.20
2013,06,29,04,32,13.20
2013,06,29,04,33,13.30
2013,06,29,04,34,13.30
2013,06,29,04,35,13.30
2013,06,29,04,36,13.40
2013,06,29,04,37,13.40
2013,06,29,04,38,13.50
2013,06,29,04,39,13.50
2013,06,29,04,40,13.60
2013,06,29,04,41,13.70
2013,06,29,04,42,13.70
2013,06,29,04,43,13.70
2013,06,29,04,44,13.70
2013,06,29,04,45,13.70
2013,06,29,04,46,13.80
2013,06,29,04,47,13.80
2013,06,29,04,48,13.80
2013,06,29,04,49,13.80
2013,06,29,04,50,13.80
2013,06,29,04,51,13.90
2013,06,29,04,52,14.00
2013,06,29,04,53,14.00
2013,06,29,04,54,14.00
2013,06,29,04,55,14.00
2013,06,29,04,56,13.90
2013,06,29,04,57,13.90
2013,06,29,04,58,13.80
2013,06,29,04,59,13.70
2013,06,29,05,00,13.70
2013,06,29,05,01,13.70
2013,06,29,05,02,13.70
2013,06,29,05,03,13.60
2013,06,29,05,04,13.50
2013,06,29,05,05,13.30
2013,06,29,05,06,13.10
2013,06,29,05,07,13.00
2013,06,29,05,08,12.90
2013,06,29,05,09,12.80
2013,06,29,05,10,12.70
2013,06,29,05,11,12.70
2013,06,29,05,12,12.70
2013,06,29,05,13,12.60
2013,06,29,05,14,12.60
2013,06,29,05,15,12.60
2013,06,29,05,16,12.60
2013,06,29,05,17,12.60
2013,06,29,05,18,12.60
2013,06,29,05,19,12.70
2013,06,29,05,20,12.70
2013,06,29,05,21,12.80
2013,06,29,05,22,12.80
2013,06,29,05,23,12.90
2013,06,29,05,24,12.90
2013,06,29,05,25,12.90
2013,06,29,05,26,13.00
2013,06,29,05,27,13.10
2013,06,29,05,28,13.10
2013,06,29,05,29,13.20
2013,06,29,05,30,13.30
2013,06,29,05,31,13.30
2013,06,29,05,32,13.40
2013,06,29,05,33,13.40
2013,06,29,05,34,13.50
2013,06,29,05,35,13.60
2013,06,29,05,36,13.50
2013,06,29,05,37,13.40
2013,06,29,05,38,13.40
2013,06,29,05,39,13.30
2013,06,29,05,40,13.30
2013,06,29,05,41,13.30
2013,06,29,05,42,13.20
2013,06,29,05,43,13.20
2013,06,29,05,44,13.20
2013,06,29,05,45,13.20
2013,06,29,05,46,13.20
2013,06,29,05,47,13.20
2013,06,29,05,48,13.20
2013,06,29,05,49,13.20
2013,06,29,05,50,13.10
2013,06,29,05,51,13.10
2013,06,29,05,52,13.10
2013,06,29,05,53,13.10
2013,06,29,05,54,13.10
2013,06,29,05,55,13.10
2013,06,29,05,56,13.10
2013,06,29,05,57,13.10
2013,06,29,05,58,13.10
2013,06,29,05,59,13.10
2013,06,29,06,00,13.10
2013,06,29,06,01,13.10
2013,06,29,06,02,13.10
2013,06,29,06,03,13.10
2013,06,29,06,04,13.10
2013,06,29,06,05,13.10
2013,06,29,06,06,13.10
2013,06,29,06,07,13.20
2013,06,29,06,08,13.20
2013,06,29,06,09,13.20
2013,06,29,06,10,13.20
2013,06,29,06,11,13.20
2013,06,29,06,12,13.30
2013,06,29,06,13,13.30
2013,06,29,06,14,13.30
2013,06,29,06,15,13.30
2013,06,29,06,16,13.30
2013,06,29,06,17,13.30
2013,06,29,06,18,13.30
2013,06,29,06,19,13.30
2013,06,29,06,20,13.30
2013,06,29,06,21,13.20
2013,06,29,06,22,13.20
2013,06,29,06,23,13.20
2013,06,29,06,24,13.20
2013,06,29,06,25,13.20
2013,06,29,06,26,13.20
2013,06,29,06,27,13.30
2013,06,29,06,28,13.30
2013,06,29,06,29,13.30
2013,06,29,06,30,13.40
2013,06,29,06,31,13.40
2013,06,29,06,32,13.50
2013,06,29,06,33,13.50
2013,06,29,06,34,13.60
2013,06,29,06,35,13.60
2013,06,29,06,36,13.70
2013,06,29,06,37,13.70
2013,06,29,06,38,13.80
2013,06,29,06,39,13.80
2013,06,29,06,40,13.80
2013,06,29,06,41,13.80
2013,06,29,06,42,13.80
2013,06,29,06,43,13.80
2013,06,29,06,44,13.80
2013,06,29,06,45,13.70
2013,06,29,06,46,13.60
2013,06,29,06,47,13.50
2013,06,29,06,48,13.50
2013,06,29,06,49,13.40
2013,06,29,06,50,13.30
2013,06,29,06,51,13.30
2013,06,29,06,52,13.30
2013,06,29,06,53,13.30
2013,06,29,06,54,13.30
2013,06,29,06,55,13.30
2013,06,29,06,56,13.40
2013,06,29,06,57,13.40
2013,06,29,06,58,13.40
2013,06,29,06,59,13.40
2013,06,29,07,00,13.40
2013,06,29,07,01,13.40
2013,06,29,07,02,13.20
2013,06,29,07,03,13.00
2013,06,29,07,04,12.90
2013,06,29,07,05,12.80
2013,06,29,07,06,12.70
2013,06,29,07,07,12.70
2013,06,29,07,08,12.60
2013,06,29,07,09,12.60
2013,06,29,07,10,12.50
2013,06,29,07,11,12.50
2013,06,29,07,12,12.50
2013,06,29,07,13,12.50
2013,06,29,07,14,12.60
2013,06,29,07,15,12.60
2013,06,29,07,16,12.60
2013,06,29,07,17,12.70
2013,06,29,07,18,12.70
2013,06,29,07,19,12.80
2013,06,29,07,20,12.90
2013,06,29,07,21,13.00
2013,06,29,07,22,13.20
2013,06,29,07,23,13.30
2013,06,29,07,24,13.40
2013,06,29,07,25,13.50
2013,06,29,07,26,13.60
2013,06,29,07,27,13.70
2013,06,29,07,28,13.70
2013,06,29,07,29,13.70
2013,06,29,07,30,13.70
2013,06,29,07,31,13.80
2013,06,29,07,32,13.80
2013,06,29,07,33,13.90
2013,06,29,07,34,14.00
2013,06,29,07,35,14.10
2013,06,29,07,36,14.20
2013,06,29,07,37,14.30
2013,06,29,07,38,14.50
2013,06,29,07,39,14.60
2013,06,29,07,40,14.70
2013,06,29,07,41,14.80
2013,06,29,07,42,14.90
2013,06,29,07,43,15.00
2013,06,29,07,44,15.00
2013,06,29,07,45,15.00
2013,06,29,07,46,15.10
2013,06,29,07,47,15.20
2013,06,29,07,48,15.30
2013,06,29,07,49,15.40
2013,06,29,07,50,15.50
2013,06,29,07,51,15.60
2013,06,29,07,52,15.60
2013,06,29,07,53,15.70
2013,06,29,07,54,15.80
2013,06,29,07,55,15.80
2013,06,29,07,56,15.90
2013,06,29,07,57,16.00
2013,06,29,07,58,16.10
2013,06,29,07,59,16.10
2013,06,29,08,00,16.20
2013,06,29,08,01,16.30
2013,06,29,08,02,16.30
2013,06,29,08,03,16.40
2013,06,29,08,04,16.50
2013,06,29,08,05,16.50
2013,06,29,08,06,16.60
2013,06,29,08,07,16.70
2013,06,29,08,08,16.70
2013,06,29,08,09,16.70
2013,06,29,08,10,16.70
2013,06,29,08,11,16.70
2013,06,29,08,12,16.60
2013,06,29,08,13,16.60
2013,06,29,08,14,16.60
2013,06,29,08,15,16.60
2013,06,29,08,16,16.60
2013,06,29,08,17,16.70
2013,06,29,08,18,16.70
2013,06,29,08,19,16.80
2013,06,29,08,20,16.80
2013,06,29,08,21,16.80
2013,06,29,08,22,16.90
2013,06,29,08,23,16.90
2013,06,29,08,24,17.00
2013,06,29,08,25,17.00
2013,06,29,08,26,16.90
2013,06,29,08,27,16.70
2013,06,29,08,28,16.60
2013,06,29,08,29,16.40
2013,06,29,08,30,16.40
2013,06,29,08,31,16.30
2013,06,29,08,32,16.30
2013,06,29,08,33,16.40
2013,06,29,08,34,16.40
2013,06,29,08,35,16.50
2013,06,29,08,36,16.50
2013,06,29,08,37,16.60
2013,06,29,08,38,16.80
2013,06,29,08,39,16.90
2013,06,29,08,40,17.00
2013,06,29,08,41,17.20
2013,06,29,08,42,17.30
2013,06,29,08,43,17.50
2013,06,29,08,44,17.70
2013,06,29,08,45,17.80
2013,06,29,08,46,18.00
2013,06,29,08,47,18.10
2013,06,29,08,48,18.20
2013,06,29,08,49,18.30
2013,06,29,08,50,18.50
2013,06,29,08,51,18.60
2013,06,29,08,52,18.70
2013,06,29,08,53,18.90
2013,06,29,08,54,19.00
2013,06,29,08,55,19.10
2013,06,29,08,56,19.10
2013,06,29,08,57,19.10
2013,06,29,08,58,19.10
2013,06,29,08,59,19.10
2013,06,29,09,00,19.20
2013,06,29,09,01,19.30
2013,06,29,09,02,19.30
2013,06,29,09,03,19.40
2013,06,29,09,04,19.50
2013,06,29,09,05,19.60
2013,06,29,09,06,19.70
2013,06,29,09,07,19.70
2013,06,29,09,08,19.70
2013,06,29,09,09,19.60
2013,06,29,09,10,19.60
2013,06,29,09,11,19.60
2013,06,29,09,12,19.70
2013,06,29,09,13,19.70
2013,06,29,09,14,19.80
2013,06,29,09,15,19.80
2013,06,29,09,16,19.80
2013,06,29,09,17,19.90
2013,06,29,09,18,19.90
2013,06,29,09,19,19.90
2013,06,29,09,20,19.90
2013,06,29,09,21,19.90
2013,06,29,09,22,19.90
2013,06,29,09,23,19.90
2013,06,29,09,24,19.90
2013,06,29,09,25,20.00
2013,06,29,09,26,20.10
2013,06,29,09,27,20.20
2013,06,29,09,28,20.30
2013,06,29,09,29,20.30
2013,06,29,09,30,20.30
2013,06,29,09,31,20.20
2013,06,29,09,32,20.10
2013,06,29,09,33,20.00
2013,06,29,09,34,19.90
2013,06,29,09,35,19.60
2013,06,29,09,36,19.30
2013,06,29,09,37,19.10
2013,06,29,09,38,18.90
2013,06,29,09,39,18.60
2013,06,29,09,40,18.50
2013,06,29,09,41,18.60
2013,06,29,09,42,18.60
2013,06,29,09,43,18.60
2013,06,29,09,44,18.70
2013,06,29,09,45,18.70
2013,06,29,09,46,18.80
2013,06,29,09,47,18.80
2013,06,29,09,48,18.90
2013,06,29,09,49,18.80
2013,06,29,09,50,18.70
2013,06,29,09,51,18.60
2013,06,29,09,52,18.50
2013,06,29,09,53,18.40
2013,06,29,09,54,18.40
2013,06,29,09,55,18.50
2013,06,29,09,56,18.60
2013,06,29,09,57,18.50
2013,06,29,09,58,18.40
2013,06,29,09,59,18.20
2013,06,29,10,00,17.90
2013,06,29,10,01,17.70
2013,06,29,10,02,17.60
2013,06,29,10,03,17.40
2013,06,29,10,04,17.40
2013,06,29,10,05,17.50
2013,06,29,10,06,17.60
2013,06,29,10,07,17.70
2013,06,29,10,08,17.90
2013,06,29,10,09,17.90
2013,06,29,10,10,17.90
2013,06,29,10,11,17.80
2013,06,29,10,12,17.70
2013,06,29,10,13,17.70
2013,06,29,10,14,17.60
2013,06,29,10,15,17.50
2013,06,29,10,16,17.30
2013,06,29,10,17,17.00
2013,06,29,10,18,16.70
2013,06,29,10,19,16.60
2013,06,29,10,20,16.50
2013,06,29,10,21,16.40
2013,06,29,10,22,16.30
2013,06,29,10,23,16.30
2013,06,29,10,24,16.30
2013,06,29,10,25,16.40
2013,06,29,10,26,16.50
2013,06,29,10,27,16.60
2013,06,29,10,28,16.70
2013,06,29,10,29,16.80
2013,06,29,10,30,16.80
2013,06,29,10,31,16.90
2013,06,29,10,32,17.00
2013,06,29,10,33,16.90
2013,06,29,10,34,16.90
2013,06,29,10,35,16.70
2013,06,29,10,36,16.60
2013,06,29,10,37,16.50
2013,06,29,10,38,16.40
2013,06,29,10,39,16.20
2013,06,29,10,40,15.90
2013,06,29,10,41,15.70
2013,06,29,10,42,15.50
2013,06,29,10,43,15.40
2013,06,29,10,44,15.30
2013,06,29,10,45,15.10
2013,06,29,10,46,15.00
2013,06,29,10,47,15.00
2013,06,29,10,48,15.00
2013,06,29,10,49,15.00
2013,06,29,10,50,15.00
2013,06,29,10,51,15.00
2013,06,29,10,52,14.80
2013,06,29,10,53,14.80
2013,06,29,10,54,14.80
2013,06,29,10,55,14.80
2013,06,29,10,56,14.90
2013,06,29,10,57,14.90
2013,06,29,10,58,14.80
2013,06,29,10,59,14.90
2013,06,29,11,00,14.90
2013,06,29,11,01,15.00
2013,06,29,11,02,15.00
2013,06,29,11,03,15.00
2013,06,29,11,04,14.90
2013,06,29,11,05,14.80
2013,06,29,11,06,14.70
2013,06,29,11,07,14.60
2013,06,29,11,08,14.60
2013,06,29,11,09,14.50
2013,06,29,11,10,14.40
2013,06,29,11,11,14.30
2013,06,29,11,12,14.20
2013,06,29,11,13,14.10
2013,06,29,11,14,14.10
2013,06,29,11,15,14.10
2013,06,29,11,16,14.20
2013,06,29,11,17,14.30
2013,06,29,11,18,14.30
2013,06,29,11,19,14.30
2013,06,29,11,20,14.40
2013,06,29,11,21,14.50
2013,06,29,11,22,14.70
2013,06,29,11,23,14.90
2013,06,29,11,24,14.90
2013,06,29,11,25,14.90
2013,06,29,11,26,14.80
2013,06,29,11,27,14.70
2013,06,29,11,28,14.70
2013,06,29,11,29,14.70
2013,06,29,11,30,14.80
2013,06,29,11,31,15.00
2013,06,29,11,32,15.00
2013,06,29,11,33,15.20
2013,06,29,11,34,15.30
2013,06,29,11,35,15.20
2013,06,29,11,36,15.20
2013,06,29,11,37,15.20
2013,06,29,11,38,15.00
2013,06,29,11,39,15.00
2013,06,29,11,40,15.00
2013,06,29,11,41,14.90
2013,06,29,11,42,14.80
2013,06,29,11,43,14.70
2013,06,29,11,44,14.60
2013,06,29,11,45,14.60
2013,06,29,11,46,14.70
2013,06,29,11,47,14.80
2013,06,29,11,48,14.80
2013,06,29,11,49,14.90
2013,06,29,11,50,15.00
2013,06,29,11,51,15.00
2013,06,29,11,52,15.00
2013,06,29,11,53,15.20
2013,06,29,11,54,15.20
2013,06,29,11,55,15.20
2013,06,29,11,56,15.10
2013,06,29,11,57,15.00
2013,06,29,11,58,15.00
2013,06,29,11,59,15.00
2013,06,29,12,00,15.00
2013,06,29,12,01,15.00
2013,06,29,12,02,15.00
2013,06,29,12,03,15.00
2013,06,29,12,04,15.00
2013,06,29,12,05,14.90
2013,06,29,12,06,14.80
2013,06,29,12,07,14.80
2013,06,29,12,08,14.80
2013,06,29,12,09,14.70
2013,06,29,12,10,14.70
2013,06,29,12,11,14.70
2013,06,29,12,12,14.60
2013,06,29,12,13,14.50
2013,06,29,12,14,14.40
2013,06,29,12,15,14.30
2013,06,29,12,16,14.30
2013,06,29,12,17,14.30
2013,06,29,12,18,14.40
2013,06,29,12,19,14.40
2013,06,29,12,20,14.40
2013,06,29,12,21,14.40
2013,06,29,12,22,14.40
2013,06,29,12,23,14.40
2013,06,29,12,24,14.30
2013,06,29,12,25,14.30
2013,06,29,12,26,14.30
2013,06,29,12,27,14.20
2013,06,29,12,28,14.10
2013,06,29,12,29,14.10
2013,06,29,12,30,14.20
2013,06,29,12,31,14.20
2013,06,29,12,32,14.20
2013,06,29,12,33,14.20
2013,06,29,12,34,14.30
2013,06,29,12,35,14.20
2013,06,29,12,36,14.20
2013,06,29,12,37,14.20
2013,06,29,12,38,14.20
2013,06,29,12,39,14.20
2013,06,29,12,40,14.20
2013,06,29,12,41,14.30
2013,06,29,12,42,14.30
2013,06,29,12,43,14.40
2013,06,29,12,44,14.40
2013,06,29,12,45,14.40
2013,06,29,12,46,14.40
2013,06,29,12,47,14.30
2013,06,29,12,48,14.30
2013,06,29,12,49,14.30
2013,06,29,12,50,14.40
2013,06,29,12,51,14.40
2013,06,29,12,52,14.40
2013,06,29,12,53,14.30
2013,06,29,12,54,14.30
2013,06,29,12,55,14.30
2013,06,29,12,56,14.20
2013,06,29,12,57,14.20
2013,06,29,12,58,14.20
2013,06,29,12,59,14.30
2013,06,29,13,00,14.40
2013,06,29,13,01,14.60
2013,06,29,13,02,14.70
2013,06,29,13,03,14.70
2013,06,29,13,04,14.70
2013,06,29,13,05,14.70
2013,06,29,13,06,14.70
2013,06,29,13,07,14.70
2013,06,29,13,08,14.70
2013,06,29,13,09,14.80
2013,06,29,13,10,14.90
2013,06,29,13,11,14.90
2013,06,29,13,12,14.90
2013,06,29,13,13,14.90
2013,06,29,13,14,14.80
2013,06,29,13,15,14.80
2013,06,29,13,16,14.80
2013,06,29,13,17,14.80
2013,06,29,13,18,14.90
2013,06,29,13,19,15.00
2013,06,29,13,20,15.00
2013,06,29,13,21,15.00
2013,06,29,13,22,15.00
2013,06,29,13,23,15.00
2013,06,29,13,24,14.90
2013,06,29,13,25,14.90
2013,06,29,13,26,14.80
2013,06,29,13,27,14.70
2013,06,29,13,28,14.70
2013,06,29,13,29,14.80
2013,06,29,13,30,14.90
2013,06,29,13,31,15.00
2013,06,29,13,32,15.00
2013,06,29,13,33,15.10
2013,06,29,13,34,15.20
2013,06,29,13,35,15.30
2013,06,29,13,36,15.30
2013,06,29,13,37,15.30
2013,06,29,13,38,15.20
2013,06,29,13,39,15.10
2013,06,29,13,40,15.00
2013,06,29,13,41,15.00
2013,06,29,13,42,15.00
2013,06,29,13,43,15.00
2013,06,29,13,44,15.00
2013,06,29,13,45,15.00
2013,06,29,13,46,14.90
2013,06,29,13,47,14.90
2013,06,29,13,48,14.90
2013,06,29,13,49,15.00
2013,06,29,13,50,15.00
2013,06,29,13,51,15.00
2013,06,29,13,52,15.00
2013,06,29,13,53,15.00
2013,06,29,13,54,15.00
2013,06,29,13,55,15.00
2013,06,29,13,56,15.00
2013,06,29,13,57,14.80
2013,06,29,13,58,14.70
2013,06,29,13,59,14.70
2013,06,29,14,00,14.60
2013,06,29,14,01,14.50
2013,06,29,14,02,14.50
2013,06,29,14,03,14.40
2013,06,29,14,04,14.40
2013,06,29,14,05,14.40
2013,06,29,14,06,14.40
2013,06,29,14,07,14.40
2013,06,29,14,08,14.40
2013,06,29,14,09,14.40
2013,06,29,14,10,14.40
2013,06,29,14,11,14.50
2013,06,29,14,12,14.50
2013,06,29,14,13,14.60
2013,06,29,14,14,14.70
2013,06,29,14,15,14.80
2013,06,29,14,16,15.00
2013,06,29,14,17,15.00
2013,06,29,14,18,15.20
2013,06,29,14,19,15.40
2013,06,29,14,20,15.60
2013,06,29,14,21,15.80
2013,06,29,14,22,16.00
2013,06,29,14,23,16.20
2013,06,29,14,24,16.40
2013,06,29,14,25,16.60
2013,06,29,14,26,16.80
2013,06,29,14,27,16.80
2013,06,29,14,28,16.80
2013,06,29,14,29,16.80
2013,06,29,14,30,16.90
2013,06,29,14,31,16.90
2013,06,29,14,32,16.90
2013,06,29,14,33,17.00
2013,06,29,14,34,17.10
2013,06,29,14,35,17.10
2013,06,29,14,36,17.10
2013,06,29,14,37,17.20
2013,06,29,14,38,17.30
2013,06,29,14,39,17.40
2013,06,29,14,40,17.40
2013,06,29,14,41,17.40
2013,06,29,14,42,17.30
2013,06,29,14,43,17.20
2013,06,29,14,44,17.00
2013,06,29,14,45,16.90
2013,06,29,14,46,16.90
2013,06,29,14,47,17.00
2013,06,29,14,48,17.10
2013,06,29,14,49,17.20
2013,06,29,14,50,17.40
2013,06,29,14,51,17.50
2013,06,29,14,52,17.60
2013,06,29,14,53,17.70
2013,06,29,14,54,17.80
2013,06,29,14,55,17.90
2013,06,29,14,56,18.00
2013,06,29,14,57,18.10
2013,06,29,14,58,18.20
2013,06,29,14,59,18.40
2013,06,29,15,00,18.50
2013,06,29,15,01,18.60
2013,06,29,15,02,18.80
2013,06,29,15,03,18.90
2013,06,29,15,04,19.00
2013,06,29,15,05,19.00
2013,06,29,15,06,19.20
2013,06,29,15,07,19.30
2013,06,29,15,08,19.50
2013,06,29,15,09,19.70
2013,06,29,15,10,19.80
2013,06,29,15,11,19.90
2013,06,29,15,12,20.00
2013,06,29,15,13,20.00
2013,06,29,15,14,20.10
2013,06,29,15,15,20.20
2013,06,29,15,16,20.20
2013,06,29,15,17,20.30
2013,06,29,15,18,20.30
2013,06,29,15,19,20.40
2013,06,29,15,20,20.40
2013,06,29,15,21,20.40
2013,06,29,15,22,20.40
2013,06,29,15,23,20.30
2013,06,29,15,24,20.30
2013,06,29,15,25,20.30
2013,06,29,15,26,20.30
2013,06,29,15,27,20.30
2013,06,29,15,28,20.40
2013,06,29,15,29,20.40
2013,06,29,15,30,20.40
2013,06,29,15,31,20.50
2013,06,29,15,32,20.50
2013,06,29,15,33,20.60
2013,06,29,15,34,20.70
2013,06,29,15,35,20.90
2013,06,29,15,36,21.10
2013,06,29,15,37,21.50
2013,06,29,15,38,21.80
2013,06,29,15,39,22.20
2013,06,29,15,40,22.50
2013,06,29,15,41,22.90
2013,06,29,15,42,23.20
2013,06,29,15,43,23.40
2013,06,29,15,44,23.70
2013,06,29,15,45,23.90
2013,06,29,15,46,24.20
2013,06,29,15,47,24.50
2013,06,29,15,48,24.70
2013,06,29,15,49,24.90
2013,06,29,15,50,25.10
2013,06,29,15,51,25.20
2013,06,29,15,52,25.40
2013,06,29,15,53,25.50
2013,06,29,15,54,25.60
2013,06,29,15,55,25.70
2013,06,29,15,56,25.80
2013,06,29,15,57,25.90
2013,06,29,15,58,25.90
2013,06,29,15,59,25.90
2013,06,29,16,00,25.90
2013,06,29,16,01,25.90
2013,06,29,16,02,25.90
2013,06,29,16,03,26.00
2013,06,29,16,04,26.00
2013,06,29,16,05,25.90
2013,06,29,16,06,25.70
2013,06,29,16,07,25.60
2013,06,29,16,08,25.60
2013,06,29,16,09,25.60
2013,06,29,16,10,25.50
2013,06,29,16,11,25.50
2013,06,29,16,12,25.60
2013,06,29,16,13,25.60
2013,06,29,16,14,25.70
2013,06,29,16,15,25.80
2013,06,29,16,16,25.90
2013,06,29,16,17,25.90
2013,06,29,16,18,25.90
2013,06,29,16,19,25.90
2013,06,29,16,20,25.90
2013,06,29,16,21,25.90
2013,06,29,16,22,25.90
2013,06,29,16,23,25.90
2013,06,29,16,24,25.90
2013,06,29,16,25,25.80
2013,06,29,16,26,25.80
2013,06,29,16,27,25.80
2013,06,29,16,28,25.80
2013,06,29,16,29,25.80
2013,06,29,16,30,25.80
2013,06,29,16,31,25.80
2013,06,29,16,32,25.70
2013,06,29,16,33,25.80
2013,06,29,16,34,25.80
2013,06,29,16,35,25.80
2013,06,29,16,36,25.90
2013,06,29,16,37,25.90
2013,06,29,16,38,25.90
2013,06,29,16,39,25.90
2013,06,29,16,40,25.90
2013,06,29,16,41,25.90
2013,06,29,16,42,25.90
2013,06,29,16,43,25.90
2013,06,29,16,44,25.90
2013,06,29,16,45,25.90
2013,06,29,16,46,25.90
2013,06,29,16,47,25.90
2013,06,29,16,48,25.90
2013,06,29,16,49,25.90
2013,06,29,16,50,25.90
2013,06,29,16,51,25.90
2013,06,29,16,52,25.90
2013,06,29,16,53,25.90
2013,06,29,16,54,25.90
2013,06,29,16,55,25.90
2013,06,29,16,56,25.80
2013,06,29,16,57,25.70
2013,06,29,16,58,25.70
2013,06,29,16,59,25.70
2013,06,29,17,00,25.70
2013,06,29,17,01,25.60
2013,06,29,17,02,25.60
2013,06,29,17,03,25.60
2013,06,29,17,04,25.60
2013,06,29,17,05,25.60
2013,06,29,17,06,25.50
2013,06,29,17,07,25.50
2013,06,29,17,08,25.40
2013,06,29,17,09,25.30
2013,06,29,17,10,25.20
2013,06,29,17,11,25.20
2013,06,29,17,12,25.10
2013,06,29,17,13,25.00
2013,06,29,17,14,24.90
2013,06,29,17,15,24.80
2013,06,29,17,16,24.70
2013,06,29,17,17,24.60
2013,06,29,17,18,24.60
2013,06,29,17,19,24.60